SWA434 KPHX-KSAN

Flight info

Callsign SWA434
Flight time 0h 57m
Altitude 30000
Route FYRBD1 MOHAK J2 HOGGZ LUCKI1
Aircraft B38M/M-SDE1FGHILORVWXY/HB1

Departure

Time 2026-05-04 02:03
Airport Phoenix Sky Harbor International Airport (KPHX)

Arrival

Time 2026-05-04 03:01
Airport San Diego International Airport (KSAN)
Time Latitude Longitude Altitude Speed Heading
2026-05-04 01:30 33.43353 -111.99485 1116 ft 0 kts 68°
2026-05-04 01:52 33.43354 -111.99483 1117 ft 2 kts 69°
2026-05-04 01:52 33.43354 -111.99482 1117 ft 0 kts 69°
2026-05-04 01:55 33.43351 -111.99490 1116 ft 2 kts 71°
2026-05-04 01:55 33.43349 -111.99509 1122 ft 3 kts 110°
2026-05-04 01:55 33.43354 -111.99520 1122 ft 3 kts 147°
2026-05-04 01:55 33.43372 -111.99528 1120 ft 3 kts 173°
2026-05-04 01:56 33.43385 -111.99529 1120 ft 1 kts 180°
2026-05-04 01:56 33.43389 -111.99529 1119 ft 0 kts 180°
2026-05-04 01:59 33.43385 -111.99529 1120 ft 2 kts 180°
2026-05-04 01:59 33.43359 -111.99529 1117 ft 7 kts 180°
2026-05-04 02:00 33.43294 -111.99513 1126 ft 10 kts 134°
2026-05-04 02:00 33.43283 -111.99432 1124 ft 11 kts 91°
2026-05-04 02:00 33.43283 -111.99337 1124 ft 11 kts 90°
2026-05-04 02:00 33.43265 -111.99251 1120 ft 8 kts 143°
2026-05-04 02:01 33.43227 -111.99252 1122 ft 6 kts 202°
2026-05-04 02:01 33.43171 -111.99305 1122 ft 16 kts 222°
2026-05-04 02:01 33.43117 -111.99346 1121 ft 1 kts 215°
2026-05-04 02:01 33.43108 -111.99363 1123 ft 0 kts 260°
2026-05-04 02:02 33.43108 -111.99364 1123 ft 0 kts 263°
2026-05-04 02:03 33.43105 -111.99542 1126 ft 60 kts 269°
2026-05-04 02:03 33.43108 -112.00358 1128 ft 133 kts 271°
2026-05-04 02:03 33.43119 -112.01668 1299 ft 180 kts 269°
2026-05-04 02:03 33.43084 -112.03182 2286 ft 155 kts 262°
2026-05-04 02:04 33.43034 -112.04364 3558 ft 150 kts 262°
2026-05-04 02:04 33.42991 -112.05765 3721 ft 190 kts 265°
2026-05-04 02:04 33.42925 -112.07391 4434 ft 195 kts 256°
2026-05-04 02:04 33.42493 -112.08888 5207 ft 184 kts 246°
2026-05-04 02:05 33.42025 -112.10298 5893 ft 182 kts 246°
2026-05-04 02:05 33.41551 -112.11758 6311 ft 196 kts 246°
2026-05-04 02:05 33.41036 -112.13367 6777 ft 217 kts 246°
2026-05-04 02:05 33.40480 -112.15128 7340 ft 236 kts 246°
2026-05-04 02:06 33.39650 -112.16895 7799 ft 254 kts 224°
2026-05-04 02:06 33.38117 -112.18009 8354 ft 267 kts 194°
2026-05-04 02:06 33.36286 -112.18038 9395 ft 267 kts 169°
2026-05-04 02:06 33.34478 -112.17422 10229 ft 274 kts 166°
2026-05-04 02:07 33.32593 -112.16758 10714 ft 293 kts 166°
2026-05-04 02:07 33.30577 -112.16045 11229 ft 309 kts 167°
2026-05-04 02:07 33.28475 -112.15363 11911 ft 315 kts 175°
2026-05-04 02:07 33.26313 -112.15455 12776 ft 313 kts 196°
2026-05-04 02:08 33.24336 -112.16554 13525 ft 316 kts 219°
2026-05-04 02:08 33.22877 -112.18466 14290 ft 320 kts 238°
2026-05-04 02:08 33.22075 -112.20949 15097 ft 324 kts 257°
2026-05-04 02:08 33.22016 -112.23654 15944 ft 330 kts 271°
2026-05-04 02:09 33.21896 -112.26376 16653 ft 328 kts 252°
2026-05-04 02:09 33.20813 -112.28745 17472 ft 329 kts 232°
2026-05-04 02:09 33.19362 -112.30868 18160 ft 332 kts 234°
2026-05-04 02:09 33.17927 -112.33047 18804 ft 334 kts 234°
2026-05-04 02:10 33.16492 -112.35244 19416 ft 337 kts 235°
2026-05-04 02:10 33.15049 -112.37467 20023 ft 340 kts 235°
2026-05-04 02:10 33.13599 -112.39708 20643 ft 343 kts 236°
2026-05-04 02:10 33.12139 -112.41966 21236 ft 345 kts 236°
2026-05-04 02:11 33.10665 -112.44248 21825 ft 348 kts 236°
2026-05-04 02:11 33.09182 -112.46544 22420 ft 351 kts 236°
2026-05-04 02:11 33.07683 -112.48859 22954 ft 354 kts 237°
2026-05-04 02:11 33.06179 -112.51188 23575 ft 355 kts 237°
2026-05-04 02:12 33.04666 -112.53526 24056 ft 358 kts 237°
2026-05-04 02:12 33.03139 -112.55877 24567 ft 359 kts 237°
2026-05-04 02:12 33.01610 -112.58232 25088 ft 360 kts 237°
2026-05-04 02:12 33.00071 -112.60602 25569 ft 362 kts 237°
2026-05-04 02:13 32.98527 -112.62977 26058 ft 363 kts 238°
2026-05-04 02:13 32.96981 -112.65367 26533 ft 364 kts 239°
2026-05-04 02:13 32.95864 -112.68025 26983 ft 359 kts 256°
2026-05-04 02:13 32.95381 -112.70942 27343 ft 362 kts 261°
2026-05-04 02:14 32.94899 -112.73887 27822 ft 361 kts 261°
2026-05-04 02:14 32.94453 -112.76816 28434 ft 359 kts 262°
2026-05-04 02:14 32.94030 -112.79726 29104 ft 354 kts 262°
2026-05-04 02:14 32.93624 -112.82605 29719 ft 352 kts 262°
2026-05-04 02:15 32.93229 -112.85471 29837 ft 350 kts 262°
2026-05-04 02:15 32.92842 -112.88300 29839 ft 345 kts 262°
2026-05-04 02:15 32.92078 -112.93917 29820 ft 343 kts 262°
2026-05-04 02:16 32.91314 -112.99526 29810 ft 344 kts 262°
2026-05-04 02:16 32.90549 -113.05137 29808 ft 344 kts 262°
2026-05-04 02:17 32.89781 -113.10747 29797 ft 343 kts 262°
2026-05-04 02:17 32.89011 -113.16332 29795 ft 342 kts 262°
2026-05-04 02:18 32.88240 -113.21908 29790 ft 342 kts 262°
2026-05-04 02:18 32.87467 -113.27481 29788 ft 342 kts 262°
2026-05-04 02:19 32.86694 -113.33056 29776 ft 342 kts 262°
2026-05-04 02:19 32.85917 -113.38634 29773 ft 342 kts 262°
2026-05-04 02:20 32.85138 -113.44203 29774 ft 340 kts 262°
2026-05-04 02:20 32.84360 -113.49738 29776 ft 339 kts 262°
2026-05-04 02:21 32.83580 -113.55263 29772 ft 339 kts 262°
2026-05-04 02:21 32.82800 -113.60790 29781 ft 339 kts 262°
2026-05-04 02:22 32.82019 -113.66318 29778 ft 339 kts 262°
2026-05-04 02:22 32.81233 -113.71844 29783 ft 339 kts 262°
2026-05-04 02:23 32.80445 -113.77361 29789 ft 338 kts 262°
2026-05-04 02:23 32.79656 -113.82860 29780 ft 337 kts 262°
2026-05-04 02:24 32.78867 -113.88355 29774 ft 338 kts 262°
2026-05-04 02:24 32.78077 -113.93857 29772 ft 337 kts 262°
2026-05-04 02:25 32.77647 -113.99376 29773 ft 336 kts 272°
2026-05-04 02:25 32.77564 -114.04942 29792 ft 337 kts 269°
2026-05-04 02:26 32.77711 -114.10492 29767 ft 336 kts 271°
2026-05-04 02:26 32.77907 -114.16042 29763 ft 336 kts 272°
2026-05-04 02:27 32.78113 -114.21553 29784 ft 336 kts 271°
2026-05-04 02:27 32.78320 -114.27093 29761 ft 336 kts 271°
2026-05-04 02:28 32.78526 -114.32653 29839 ft 338 kts 271°
2026-05-04 02:28 32.78801 -114.38333 29841 ft 352 kts 278°
2026-05-04 02:29 32.80297 -114.43922 29867 ft 352 kts 282°
2026-05-04 02:29 32.81754 -114.49449 29851 ft 353 kts 283°
2026-05-04 02:30 32.83265 -114.55012 29847 ft 354 kts 283°
2026-05-04 02:30 32.84779 -114.60533 29827 ft 345 kts 283°
2026-05-04 02:31 32.86247 -114.65896 29782 ft 339 kts 283°
2026-05-04 02:31 32.87673 -114.71241 29769 ft 337 kts 279°
2026-05-04 02:32 32.87830 -114.73977 29794 ft 332 kts 268°
2026-05-04 02:32 32.87798 -114.76731 29746 ft 333 kts 269°
2026-05-04 02:32 32.87719 -114.82238 29799 ft 334 kts 268°
2026-05-04 02:33 32.87606 -114.87750 29785 ft 333 kts 268°
2026-05-04 02:33 32.87482 -114.93261 29786 ft 333 kts 268°
2026-05-04 02:34 32.87355 -114.98772 29778 ft 333 kts 268°
2026-05-04 02:34 32.87226 -115.04274 29791 ft 331 kts 268°
2026-05-04 02:35 32.87097 -115.09742 29789 ft 330 kts 268°
2026-05-04 02:35 32.86969 -115.15112 29779 ft 312 kts 268°
2026-05-04 02:36 32.86907 -115.17625 29762 ft 297 kts 268°
2026-05-04 02:36 32.86848 -115.20021 29776 ft 282 kts 268°
2026-05-04 02:36 32.86791 -115.22295 29770 ft 272 kts 268°
2026-05-04 02:36 32.86733 -115.24565 29782 ft 278 kts 267°
2026-05-04 02:37 32.86672 -115.26928 29539 ft 294 kts 267°
2026-05-04 02:37 32.86631 -115.28547 29330 ft 297 kts 267°
2026-05-04 02:37 32.86569 -115.31004 29301 ft 291 kts 267°
2026-05-04 02:37 32.86510 -115.33295 29694 ft 267 kts 266°
2026-05-04 02:38 32.86285 -115.35476 29690 ft 269 kts 261°
2026-05-04 02:38 32.85952 -115.37732 29313 ft 285 kts 261°
2026-05-04 02:38 32.85516 -115.40838 28722 ft 290 kts 261°
2026-05-04 02:38 32.85296 -115.42442 28419 ft 292 kts 261°
2026-05-04 02:39 32.84973 -115.44835 28019 ft 293 kts 261°
2026-05-04 02:39 32.84653 -115.47230 27603 ft 293 kts 261°
2026-05-04 02:39 32.84293 -115.49616 27149 ft 293 kts 259°
2026-05-04 02:39 32.83899 -115.51988 26717 ft 292 kts 259°
2026-05-04 02:40 32.83512 -115.54344 26337 ft 289 kts 259°
2026-05-04 02:40 32.83130 -115.56684 25956 ft 287 kts 259°
2026-05-04 02:40 32.82752 -115.59005 25581 ft 285 kts 259°
2026-05-04 02:40 32.82378 -115.61307 25213 ft 283 kts 259°
2026-05-04 02:41 32.82005 -115.63597 24872 ft 281 kts 259°
2026-05-04 02:41 32.81635 -115.65869 24550 ft 279 kts 258°
2026-05-04 02:41 32.81265 -115.68127 24185 ft 278 kts 258°
2026-05-04 02:41 32.80897 -115.70376 23838 ft 277 kts 258°
2026-05-04 02:42 32.80526 -115.72630 23500 ft 281 kts 258°
2026-05-04 02:42 32.80149 -115.74925 23113 ft 285 kts 258°
2026-05-04 02:42 32.79767 -115.77251 22710 ft 288 kts 258°
2026-05-04 02:42 32.79382 -115.79588 22376 ft 288 kts 258°
2026-05-04 02:43 32.78998 -115.81921 22044 ft 287 kts 258°
2026-05-04 02:43 32.78617 -115.84250 21718 ft 287 kts 259°
2026-05-04 02:43 32.78444 -115.86613 21344 ft 287 kts 263°
2026-05-04 02:43 32.78282 -115.88961 21048 ft 283 kts 263°
2026-05-04 02:44 32.78113 -115.91278 20750 ft 279 kts 263°
2026-05-04 02:44 32.77941 -115.93562 20459 ft 276 kts 262°
2026-05-04 02:44 32.77769 -115.95816 20152 ft 272 kts 262°
2026-05-04 02:44 32.77596 -115.98055 19868 ft 274 kts 262°
2026-05-04 02:45 32.77419 -116.00340 19578 ft 280 kts 262°
2026-05-04 02:45 32.77238 -116.02670 19297 ft 285 kts 262°
2026-05-04 02:45 32.77056 -116.05020 19001 ft 286 kts 262°
2026-05-04 02:45 32.76874 -116.07368 18697 ft 285 kts 262°
2026-05-04 02:46 32.76691 -116.09716 18392 ft 285 kts 262°
2026-05-04 02:46 32.76510 -116.12053 18063 ft 283 kts 262°
2026-05-04 02:46 32.76329 -116.14372 17759 ft 280 kts 262°
2026-05-04 02:46 32.76147 -116.16696 17239 ft 285 kts 262°
2026-05-04 02:47 32.75959 -116.19078 16717 ft 297 kts 262°
2026-05-04 02:47 32.75762 -116.21566 16216 ft 306 kts 262°
2026-05-04 02:47 32.75562 -116.24100 15716 ft 310 kts 262°
2026-05-04 02:47 32.75360 -116.26658 15235 ft 312 kts 263°
2026-05-04 02:48 32.75161 -116.29198 14730 ft 314 kts 263°
2026-05-04 02:48 32.74957 -116.31829 14236 ft 316 kts 263°
2026-05-04 02:48 32.74759 -116.34392 13796 ft 316 kts 263°
2026-05-04 02:48 32.74558 -116.36991 13303 ft 316 kts 263°
2026-05-04 02:49 32.74353 -116.39628 12826 ft 317 kts 263°
2026-05-04 02:49 32.74153 -116.42199 12346 ft 316 kts 263°
2026-05-04 02:49 32.73947 -116.44832 11869 ft 314 kts 263°
2026-05-04 02:49 32.73751 -116.47337 11426 ft 303 kts 263°
2026-05-04 02:50 32.73553 -116.49817 10958 ft 293 kts 262°
2026-05-04 02:50 32.73327 -116.52175 10591 ft 282 kts 261°
2026-05-04 02:50 32.73107 -116.54443 10266 ft 271 kts 261°
2026-05-04 02:50 32.72899 -116.56619 9887 ft 259 kts 261°
2026-05-04 02:51 32.72703 -116.58673 9599 ft 250 kts 261°
2026-05-04 02:51 32.72505 -116.60726 9269 ft 251 kts 261°
2026-05-04 02:51 32.72306 -116.62792 8929 ft 252 kts 261°
2026-05-04 02:51 32.72108 -116.64849 8588 ft 251 kts 261°
2026-05-04 02:52 32.71938 -116.66909 8273 ft 251 kts 263°
2026-05-04 02:52 32.71778 -116.68975 7920 ft 251 kts 263°
2026-05-04 02:52 32.71613 -116.71025 7619 ft 248 kts 263°
2026-05-04 02:52 32.71448 -116.73060 7338 ft 247 kts 263°
2026-05-04 02:53 32.71286 -116.75102 6983 ft 250 kts 263°
2026-05-04 02:53 32.71122 -116.77183 6471 ft 253 kts 264°
2026-05-04 02:53 32.70960 -116.79232 5983 ft 244 kts 264°
2026-05-04 02:53 32.70802 -116.81198 5484 ft 233 kts 263°
2026-05-04 02:54 32.70398 -116.82990 5213 ft 217 kts 251°
2026-05-04 02:54 32.69894 -116.84593 5068 ft 198 kts 251°
2026-05-04 02:54 32.69441 -116.86039 4910 ft 177 kts 252°
2026-05-04 02:54 32.69041 -116.87322 4764 ft 155 kts 251°
2026-05-04 02:55 32.68371 -116.89634 4837 ft 155 kts 252°
2026-05-04 02:55 32.67997 -116.90891 4801 ft 169 kts 252°
2026-05-04 02:55 32.67593 -116.92239 4723 ft 176 kts 252°
2026-05-04 02:56 32.67514 -116.93683 4584 ft 178 kts 280°
2026-05-04 02:56 32.67768 -116.95130 4473 ft 180 kts 281°
2026-05-04 02:56 32.68049 -116.96582 4332 ft 181 kts 284°
2026-05-04 02:56 32.68361 -116.98014 4198 ft 175 kts 285°
2026-05-04 02:57 32.68656 -116.99346 4019 ft 160 kts 284°
2026-05-04 02:57 32.68931 -117.00614 3891 ft 158 kts 283°
2026-05-04 02:57 32.69220 -117.01864 3626 ft 157 kts 284°
2026-05-04 02:57 32.69517 -117.03127 3565 ft 161 kts 284°
2026-05-04 02:58 32.69831 -117.04429 3364 ft 162 kts 285°
2026-05-04 02:58 32.70127 -117.05664 3587 ft 160 kts 285°
2026-05-04 02:58 32.70440 -117.06945 3244 ft 162 kts 286°
2026-05-04 02:58 32.70778 -117.08211 2992 ft 162 kts 286°
2026-05-04 02:59 32.71108 -117.09526 2343 ft 165 kts 285°
2026-05-04 02:59 32.71406 -117.10812 1912 ft 159 kts 283°
2026-05-04 02:59 32.71687 -117.12075 1481 ft 158 kts 285°
2026-05-04 02:59 32.71986 -117.13326 1164 ft 158 kts 285°
2026-05-04 03:00 32.72299 -117.14571 831 ft 158 kts 284°
2026-05-04 03:00 32.72613 -117.15839 558 ft 162 kts 285°
2026-05-04 03:00 32.72918 -117.17139 263 ft 163 kts 285°
2026-05-04 03:00 32.73229 -117.18424 50 ft 160 kts 284°
2026-05-04 03:01 32.73478 -117.19432 28 ft 65 kts 286°
2026-05-04 03:01 32.73534 -117.19753 29 ft 32 kts 260°
2026-05-04 03:01 32.73494 -117.19888 26 ft 0 kts 251°